RTV4X LPVL-LPVL

Flight info

Callsign RTV4X
Flight time 0h 10m
Altitude 4000
Route DCT AGUED DCT OVAR DCT TAROC DCT VREAL DCT
Aircraft P06T/L-SDGRY/SB1

Departure

Time 2026-05-06 10:54
Airport Vilar de Luz Airfield (LPVL)

Arrival

Time 2026-05-06 11:05
Airport Vilar de Luz Airfield (LPVL)
Time Latitude Longitude Altitude Speed Heading
2026-05-06 10:53 41.27316 -8.51341 742 ft 0 kts 334°
2026-05-06 10:53 41.27365 -8.51373 736 ft 33 kts 334°
2026-05-06 10:54 41.27745 -8.51615 757 ft 80 kts 334°
2026-05-06 10:54 41.28259 -8.51948 1041 ft 84 kts 334°
2026-05-06 10:54 41.28828 -8.52318 1344 ft 95 kts 333°
2026-05-06 10:54 41.29431 -8.52730 1563 ft 100 kts 323°
2026-05-06 10:55 41.29732 -8.53542 1595 ft 105 kts 266°
2026-05-06 10:55 41.29538 -8.54508 1640 ft 114 kts 256°
2026-05-06 10:55 41.29089 -8.55316 1611 ft 113 kts 208°
2026-05-06 10:55 41.28312 -8.55161 1489 ft 123 kts 147°
2026-05-06 10:56 41.27593 -8.54572 1513 ft 119 kts 153°
2026-05-06 10:56 41.26881 -8.54055 1501 ft 115 kts 152°
2026-05-06 10:56 41.26222 -8.53554 1436 ft 112 kts 152°
2026-05-06 10:56 41.25576 -8.53054 1384 ft 101 kts 151°
2026-05-06 10:57 41.25003 -8.52592 1455 ft 97 kts 150°
2026-05-06 10:57 41.24436 -8.52098 1589 ft 99 kts 135°
2026-05-06 10:57 41.24275 -8.51268 1713 ft 97 kts 66°
2026-05-06 10:57 41.24657 -8.50546 1504 ft 97 kts 46°
2026-05-06 10:58 41.25107 -8.49925 1297 ft 92 kts 18°
2026-05-06 10:58 41.25700 -8.50069 1146 ft 95 kts 317°
2026-05-06 10:58 41.26198 -8.50627 1027 ft 91 kts 333°
2026-05-06 10:58 41.26740 -8.50975 849 ft 84 kts 335°
2026-05-06 10:59 41.27261 -8.51306 740 ft 79 kts 333°
2026-05-06 10:59 41.27547 -8.51490 738 ft 63 kts 334°
2026-05-06 10:59 41.28022 -8.51801 894 ft 81 kts 331°
2026-05-06 10:59 41.28528 -8.52158 1246 ft 80 kts 328°
2026-05-06 11:00 41.29246 -8.52480 1431 ft 86 kts 333°
2026-05-06 11:00 41.29812 -8.52764 1520 ft 89 kts 332°
2026-05-06 11:00 41.30144 -8.53067 1527 ft 88 kts 300°
2026-05-06 11:00 41.30236 -8.53882 1660 ft 97 kts 252°
2026-05-06 11:01 41.29850 -8.54664 1581 ft 105 kts 233°
2026-05-06 11:01 41.29236 -8.55215 1598 ft 114 kts 191°
2026-05-06 11:01 41.28440 -8.55004 1542 ft 118 kts 158°
2026-05-06 11:01 41.27693 -8.54580 1512 ft 117 kts 155°
2026-05-06 11:02 41.26953 -8.54172 1508 ft 112 kts 161°
2026-05-06 11:02 41.26243 -8.53817 1488 ft 104 kts 161°
2026-05-06 11:02 41.25579 -8.53444 1482 ft 104 kts 156°
2026-05-06 11:02 41.24956 -8.53090 1562 ft 95 kts 153°
2026-05-06 11:03 41.24378 -8.52668 1467 ft 98 kts 133°
2026-05-06 11:03 41.24098 -8.51848 1539 ft 98 kts 85°
2026-05-06 11:03 41.24281 -8.50970 1602 ft 101 kts 59°
2026-05-06 11:03 41.24609 -8.50144 1479 ft 102 kts 49°
2026-05-06 11:04 41.25173 -8.49755 1263 ft 93 kts 348°
2026-05-06 11:04 41.25722 -8.50182 1086 ft 95 kts 316°
2026-05-06 11:04 41.26251 -8.50644 984 ft 88 kts 333°
2026-05-06 11:04 41.26776 -8.50988 855 ft 81 kts 334°
2026-05-06 11:05 41.27273 -8.51312 739 ft 75 kts 330°
2026-05-06 11:05 41.27653 -8.51552 737 ft 49 kts 335°
2026-05-06 11:05 41.28055 -8.51817 739 ft 85 kts 335°
2026-05-06 11:05 41.28463 -8.52341 1026 ft 92 kts 271°
2026-05-06 11:06 41.28004 -8.52945 1321 ft 106 kts 199°
2026-05-06 11:06 41.27269 -8.53245 1679 ft 111 kts 199°
2026-05-06 11:06 41.26525 -8.53461 2145 ft 113 kts 184°
2026-05-06 11:06 41.25758 -8.53220 2512 ft 114 kts 163°
2026-05-06 11:07 41.24993 -8.52878 2820 ft 117 kts 162°
2026-05-06 11:07 41.24193 -8.52520 3011 ft 134 kts 161°
2026-05-06 11:07 41.23245 -8.52089 3002 ft 151 kts 162°
2026-05-06 11:07 41.22220 -8.51621 2995 ft 159 kts 162°
2026-05-06 11:08 41.21170 -8.51143 2998 ft 160 kts 162°
2026-05-06 11:08 41.20106 -8.50654 3007 ft 164 kts 162°
2026-05-06 11:08 41.19009 -8.50195 3005 ft 164 kts 166°
2026-05-06 11:08 41.17905 -8.49810 2994 ft 162 kts 167°
2026-05-06 11:09 41.16827 -8.49441 2996 ft 157 kts 167°
2026-05-06 11:09 41.15794 -8.49078 2992 ft 154 kts 166°
2026-05-06 11:09 41.14752 -8.48717 3017 ft 159 kts 167°
2026-05-06 11:09 41.13647 -8.48345 3009 ft 167 kts 166°
2026-05-06 11:10 41.12484 -8.47962 3007 ft 173 kts 167°
2026-05-06 11:10 41.11307 -8.47576 3007 ft 177 kts 167°
2026-05-06 11:10 41.10172 -8.47199 3007 ft 177 kts 167°
2026-05-06 11:10 41.08979 -8.46809 3009 ft 177 kts 167°
2026-05-06 11:11 41.07776 -8.46413 2997 ft 177 kts 166°
2026-05-06 11:11 41.06560 -8.46369 2984 ft 176 kts 199°
2026-05-06 11:11 41.05562 -8.47232 3002 ft 174 kts 225°
2026-05-06 11:11 41.04721 -8.48350 3004 ft 169 kts 228°
2026-05-06 11:12 41.03908 -8.49466 3013 ft 172 kts 229°
2026-05-06 11:12 41.03062 -8.50630 2998 ft 175 kts 229°
2026-05-06 11:12 41.02215 -8.51831 2987 ft 176 kts 229°
2026-05-06 11:12 41.01380 -8.53012 2998 ft 174 kts 229°
2026-05-06 11:13 41.00543 -8.54164 2999 ft 174 kts 227°
2026-05-06 11:13 40.99685 -8.55342 3001 ft 182 kts 229°
2026-05-06 11:13 40.98811 -8.56567 3000 ft 184 kts 229°
2026-05-06 11:13 40.97928 -8.57814 3002 ft 187 kts 229°
2026-05-06 11:14 40.97029 -8.59075 3009 ft 189 kts 229°
2026-05-06 11:14 40.96124 -8.60345 3000 ft 189 kts 229°
2026-05-06 11:14 40.95213 -8.61607 2997 ft 190 kts 229°
2026-05-06 11:14 40.94298 -8.62862 3002 ft 189 kts 229°
2026-05-06 11:15 40.93388 -8.64123 2985 ft 188 kts 229°
2026-05-06 11:15 40.92495 -8.65363 2992 ft 186 kts 229°
2026-05-06 11:15 40.91609 -8.66599 3002 ft 186 kts 229°
2026-05-06 11:15 40.90720 -8.67852 2988 ft 183 kts 229°
2026-05-06 11:16 40.89851 -8.69060 2990 ft 180 kts 229°
2026-05-06 11:16 40.89001 -8.70233 2989 ft 178 kts 229°
2026-05-06 11:16 40.88143 -8.71404 2992 ft 177 kts 227°
2026-05-06 11:16 40.87201 -8.72476 2990 ft 178 kts 219°
2026-05-06 11:17 40.86199 -8.73437 2906 ft 182 kts 218°
2026-05-06 11:17 40.85228 -8.74446 2999 ft 175 kts 222°
2026-05-06 11:17 40.84218 -8.75356 2999 ft 177 kts 210°
2026-05-06 11:17 40.83032 -8.75904 3000 ft 180 kts 192°
2026-05-06 11:18 40.81790 -8.76154 3002 ft 181 kts 189°
2026-05-06 11:18 40.80541 -8.76361 3000 ft 182 kts 188°
2026-05-06 11:18 40.79284 -8.76561 3000 ft 181 kts 188°
2026-05-06 11:18 40.78052 -8.76758 2997 ft 168 kts 188°
2026-05-06 11:19 40.76973 -8.76933 2999 ft 147 kts 189°
2026-05-06 11:19 40.76009 -8.77086 2996 ft 132 kts 189°
2026-05-06 11:19 40.75105 -8.77116 2990 ft 129 kts 165°
2026-05-06 11:19 40.74415 -8.76446 3004 ft 125 kts 120°
2026-05-06 11:20 40.74203 -8.75374 3007 ft 120 kts 89°
2026-05-06 11:20 40.74189 -8.74287 3006 ft 118 kts 87°
2026-05-06 11:20 40.74183 -8.73207 3004 ft 118 kts 87°
2026-05-06 11:20 40.74180 -8.72131 3004 ft 117 kts 86°
2026-05-06 11:21 40.74176 -8.71003 2941 ft 128 kts 87°
2026-05-06 11:21 40.74175 -8.69828 2808 ft 127 kts 87°
2026-05-06 11:21 40.74174 -8.68671 2685 ft 127 kts 87°
2026-05-06 11:21 40.74177 -8.67507 2565 ft 127 kts 87°
2026-05-06 11:22 40.74313 -8.66318 2437 ft 133 kts 63°
2026-05-06 11:22 40.74737 -8.65239 2312 ft 132 kts 58°
2026-05-06 11:22 40.75177 -8.64168 2188 ft 133 kts 58°
2026-05-06 11:22 40.75756 -8.63245 2045 ft 133 kts 26°
2026-05-06 11:23 40.76637 -8.63102 2016 ft 126 kts 349°
2026-05-06 11:23 40.77511 -8.63268 2012 ft 128 kts 351°
2026-05-06 11:23 40.78400 -8.63388 1999 ft 127 kts 353°
2026-05-06 11:23 40.79265 -8.63489 2004 ft 124 kts 353°
2026-05-06 11:24 40.80105 -8.63570 1988 ft 114 kts 355°
2026-05-06 11:24 40.80810 -8.63638 1939 ft 88 kts 354°
2026-05-06 11:24 40.81384 -8.63686 1843 ft 81 kts 353°
2026-05-06 11:24 40.81956 -8.63737 1735 ft 83 kts 354°
2026-05-06 11:25 40.82532 -8.63789 1619 ft 85 kts 354°
2026-05-06 11:25 40.83123 -8.63841 1504 ft 86 kts 354°
2026-05-06 11:25 40.83720 -8.63893 1383 ft 85 kts 354°
2026-05-06 11:25 40.84302 -8.63946 1277 ft 85 kts 354°
2026-05-06 11:26 40.84893 -8.64000 1158 ft 85 kts 354°
2026-05-06 11:26 40.85471 -8.64052 1037 ft 81 kts 354°
2026-05-06 11:26 40.86038 -8.64101 942 ft 84 kts 354°
2026-05-06 11:26 40.86627 -8.64148 832 ft 90 kts 353°
2026-05-06 11:27 40.87364 -8.64228 705 ft 120 kts 354°
2026-05-06 11:27 40.88225 -8.64292 517 ft 122 kts 354°
2026-05-06 11:27 40.89053 -8.64361 383 ft 121 kts 352°
2026-05-06 11:27 40.89871 -8.64442 205 ft 103 kts 352°
2026-05-06 11:28 40.90469 -8.64490 97 ft 77 kts 349°
2026-05-06 11:28 40.90919 -8.64539 57 ft 40 kts 358°
2026-05-06 11:28 40.90996 -8.64541 56 ft 10 kts